Location: Hartford
(41.7640°N, 72.6860°W)
Time: 08:07:52
(UTC-05:00)

Amateur Radio Satellites - All Passes

Search period start: 27 February 2015 07:37
Search period end: 28 February 2015 07:37
Location: Hartford, 41.7640°N, 72.6860°W

Satellite Date Start Highest point End Downlink Frequencies (MHz)
Time Altitude Azimuth
PCSat 27 Feb 07:44:31 07:48:39 22° 252° (WSW) 07:52:37 145.827
CANX-2 27 Feb 07:55:00 07:58:24 23° 94° (E) 08:01:52 2200.000
SEEDS 27 Feb 07:58:29 08:01:33 20° 92° (E) 08:04:42 437.485
CUTE 1.7 + AOD 2 27 Feb 08:13:52 08:17:45 34° 96° (E) 08:21:39 437.475
AIST 1 27 Feb 08:16:17 08:19:59 26° 287° (WNW) 08:23:40
UNISAT 6 27 Feb 08:17:07 08:18:35 12° 63° (ENE) 08:20:16 437.425
DOVE 4 27 Feb 08:26:38 08:30:35 34° 96° (E) 08:34:25 437.250
Oscar 11 27 Feb 08:36:28 08:39:24 18° 91° (E) 08:42:28 145.826/435.025
TIGRISAT 27 Feb 08:42:14 08:45:30 21° 67° (ENE) 08:48:49 435.000
GONETS M04 27 Feb 08:43:39 08:52:13 58° 76° (ENE) 09:00:51
BRITE-PL 27 Feb 08:45:18 08:50:01 66° 285° (WNW) 08:54:21 437.365/2234.400
NANOSAT C BR1 27 Feb 08:52:03 08:54:27 15° 65° (ENE) 08:57:00 145.865
ANTELSAT 27 Feb 08:53:03 08:56:46 27° 69° (ENE) 09:00:30 437.575/2403.000
DX 1 27 Feb 08:54:33 08:56:35 13° 89° (E) 08:58:50 434.975-435.025
CINEMA 3 27 Feb 09:03:59 09:08:03 46° 98° (E) 09:12:02 145.822/145.860
RS-15 27 Feb 09:07:08 09:18:35 77° 241° (WSW) 09:30:30 29.354- 29.394
DELFI C3 27 Feb 09:08:50 09:12:29 31° 96° (E) 09:16:10 145.870
GOMX 1 27 Feb 09:10:31 09:14:56 52° 287° (WNW) 09:19:05 467.674
HO-68 27 Feb 09:10:43 09:17:56 79° 288° (WNW) 09:25:06 435.675
COMPASS 1 27 Feb 09:11:53 09:16:05 74° 283° (WNW) 09:20:16 437.405
ZACube-1 27 Feb 09:12:22 09:15:31 21° 93° (E) 09:18:46 437.345
AAUSAT CUBESAT 2 27 Feb 09:12:28 09:16:40 83° 284° (WNW) 09:20:52 437.432
FUNcube-1 27 Feb 09:12:37 09:15:44 21° 93° (E) 09:18:58 145.935
UWE-3 27 Feb 09:22:06 09:25:52 33° 96° (E) 09:29:39 435.000/436.395/437.385
QB50P1 27 Feb 09:22:16 09:26:02 31° 70° (ENE) 09:29:51 145.935-145.965
QB50P2 27 Feb 09:24:36 09:28:26 33° 70° (ENE) 09:32:19 145.880/145.840
SO-50 27 Feb 09:25:05 09:27:59 16° 36° (NE) 09:31:02 436.795
O/OREOS (USA 219) 27 Feb 09:25:11 09:29:29 44° 107° (ESE) 09:33:52 437.305
UKube-1 27 Feb 09:27:50 09:31:38 29° 96° (E) 09:35:27 .
ISS 27 Feb 09:29:57 09:32:41 26° 136° (SE) 09:35:29 145.825
CANX-2 27 Feb 09:30:39 09:34:22 29° 290° (WNW) 09:38:03 2200.000
SEEDS 27 Feb 09:33:39 09:37:30 35° 289° (WNW) 09:41:20 437.485
DUCHIFAT 1 27 Feb 09:42:53 09:47:02 51° 73° (ENE) 09:51:13 145.980
HUMSAT D 27 Feb 09:46:36 09:50:04 26° 95° (E) 09:53:36 437.325/437.525
CUTE 1.7 + AOD 2 27 Feb 09:50:17 09:53:31 21° 292° (WNW) 09:56:38 437.475
UNISAT 6 27 Feb 09:50:27 09:54:55 72° 258° (WSW) 09:59:18 437.425
CUBEBUG 2 27 Feb 09:50:59 09:55:11 89° 99° (E) 09:59:20 437.445
BUGSAT 1 27 Feb 09:52:57 09:57:04 50° 73° (ENE) 10:01:14 437.445
POLYITAN 1 27 Feb 09:58:16 10:02:35 79° 76° (ENE) 10:06:54 437.675
POPSAT HIP 1 27 Feb 10:00:50 10:05:09 83° 77° (ENE) 10:09:28 437.405
DOVE 4 27 Feb 10:04:53 10:08:13 21° 293° (WNW) 10:11:19 437.250
Oscar 11 27 Feb 10:11:45 10:15:48 40° 288° (WNW) 10:19:49 145.826/435.025
AISAT 27 Feb 10:14:10 10:18:23 40° 98° (E) 10:22:34 437.250
TIGRISAT 27 Feb 10:17:55 10:22:04 37° 263° (W) 10:26:08 435.000
50 SAT 27 Feb 10:24:08 10:27:58 50° 99° (E) 10:31:49 437.505
CUSAT 1 27 Feb 10:24:13 10:25:35 13° 69° (ENE) 10:26:59 437.405
VELOX 1 27 Feb 10:25:31 10:29:54 52° 100° (E) 10:34:14 145.980
NANOSAT C BR1 27 Feb 10:25:45 10:29:57 52° 260° (W) 10:34:09 145.865
ESTCUBE 1 27 Feb 10:26:36 10:30:26 27° 94° (E) 10:34:18 437.505/2401.250
DX 1 27 Feb 10:28:59 10:33:17 56° 287° (WNW) 10:37:32 434.975-435.025
ANTELSAT 27 Feb 10:29:41 10:33:33 27° 265° (W) 10:37:17 437.575/2403.000
CUBEBUG 1 27 Feb 10:31:43 10:35:26 27° 94° (E) 10:39:11 437.445
GONETS M04 27 Feb 10:41:14 10:48:40 31° 275° (W) 10:55:52
CINEMA 3 27 Feb 10:42:22 10:44:56 15° 295° (WNW) 10:47:19 145.822/145.860
DELFI C3 27 Feb 10:44:25 10:47:33 21° 292° (WNW) 10:50:35 145.870
ZACube-1 27 Feb 10:48:18 10:52:00 31° 290° (WNW) 10:55:38 437.345
FUNcube-1 27 Feb 10:48:30 10:52:12 31° 289° (WNW) 10:55:50 145.935
QB50P1 27 Feb 10:58:29 11:01:58 23° 266° (W) 11:05:23 145.935-145.965
UWE-3 27 Feb 10:59:09 11:02:16 20° 293° (WNW) 11:05:17 435.000/436.395/437.385
HO-68 27 Feb 11:00:23 11:04:41 17° 306° (NW) 11:08:40 435.675
QB50P2 27 Feb 11:01:04 11:04:27 22° 267° (W) 11:07:44 145.880/145.840
UKube-1 27 Feb 11:04:05 11:07:43 26° 292° (WNW) 11:11:15 .
SO-50 27 Feb 11:04:23 11:09:22 82° 56° (NE) 11:14:17 436.795
O/OREOS (USA 219) 27 Feb 11:05:41 11:09:10 21° 306° (NW) 11:12:35 437.305
ISS 27 Feb 11:05:58 11:09:02 38° 333° (NNW) 11:12:05 145.825
DANDE 27 Feb 11:13:32 11:16:23 56° 77° (ENE) 11:18:57 436.750
SPROUT 27 Feb 11:19:30 11:22:50 22° 93° (E) 11:26:14 437.525
DUCHIFAT 1 27 Feb 11:20:51 11:23:14 14° 270° (W) 11:25:27 145.980
RS-15 27 Feb 11:22:12 11:29:32 18° 259° (W) 11:36:09 29.354- 29.394
HUMSAT D 27 Feb 11:22:26 11:25:48 24° 291° (WNW) 11:29:07 437.325/437.525
BUGSAT 1 27 Feb 11:30:27 11:32:54 14° 270° (W) 11:35:11 437.445
TISAT 1 27 Feb 11:37:00 11:40:44 30° 96° (E) 11:44:29 437.305
ITAMSAT 1 27 Feb 11:46:19 11:48:25 13° 60° (ENE) 11:50:48 435.822/435.867
AISAT 27 Feb 11:51:28 11:54:45 20° 294° (WNW) 11:57:54 437.250
Oscar 19 27 Feb 11:53:29 11:58:14 40° 70° (ENE) 12:03:02 437.125/150
50 SAT 27 Feb 12:00:40 12:02:37 13° 295° (WNW) 12:04:25 437.505
VELOX 1 27 Feb 12:03:18 12:06:06 16° 296° (WNW) 12:08:43 145.980
ESTCUBE 1 27 Feb 12:03:18 12:07:19 30° 291° (WNW) 12:11:16 437.505/2401.250
CUSAT 1 27 Feb 12:07:15 12:08:23 12° 269° (W) 12:09:23 437.405
CUBEBUG 1 27 Feb 12:07:59 12:11:48 28° 291° (WNW) 12:15:32 437.445
Gurwin Techsat 1B 27 Feb 12:33:21 12:37:33 25° 66° (ENE) 12:41:53 435.225
SWISSCUBE 27 Feb 12:40:52 12:44:51 26° 94° (E) 12:48:55 437.505
ISS 27 Feb 12:44:05 12:46:08 15° 352° (N) 12:48:09 145.825
SO-50 27 Feb 12:47:07 12:49:21 13° 251° (WSW) 12:51:19 436.795
BEESAT 27 Feb 12:50:05 12:54:17 30° 95° (E) 12:58:30 436.000
AO-7 27 Feb 12:51:04 12:55:37 17° 49° (NE) 13:00:33 29.400- 29.500
SPROUT 27 Feb 12:55:09 12:59:01 32° 290° (WNW) 13:02:48 437.525
TISAT 1 27 Feb 13:13:01 13:16:26 23° 292° (WNW) 13:19:44 437.305
ITUPSAT 1 27 Feb 13:14:40 13:19:24 51° 100° (E) 13:24:06 437.325
ITAMSAT 1 27 Feb 13:22:02 13:27:15 89° 248° (WSW) 13:32:33 435.822/435.867
HORYU 2 27 Feb 13:27:19 13:30:26 19° 66° (ENE) 13:33:39 437.375
Oscar 19 27 Feb 13:33:30 13:37:45 25° 267° (W) 13:41:54 437.125/150
JAS-2 27 Feb 13:44:41 13:46:06 11° 54° (NE) 13:47:51 435.910
KKS-1 27 Feb 14:02:18 14:06:15 31° 96° (E) 14:10:13 437.445
Gurwin Techsat 1B 27 Feb 14:12:16 14:17:19 43° 262° (W) 14:22:23 435.225
STARS 27 Feb 14:17:24 14:21:13 29° 95° (E) 14:25:04 437.465
SWISSCUBE 27 Feb 14:18:26 14:22:47 34° 291° (WNW) 14:27:05 437.505
ISS 27 Feb 14:21:13 14:23:29 17° 12° (NNE) 14:25:45 145.825
BEESAT 27 Feb 14:27:54 14:32:06 30° 292° (WNW) 14:36:14 436.000
AO-7 27 Feb 14:38:51 14:47:06 69° 68° (ENE) 14:55:23 29.400- 29.500
ITUPSAT 1 27 Feb 14:53:34 14:56:57 19° 296° (WNW) 15:00:10 437.325
HORYU 2 27 Feb 15:02:38 15:06:51 41° 262° (W) 15:11:03 437.375
ITAMSAT 1 27 Feb 15:06:32 15:07:38 10° 274° (W) 15:08:22 435.822/435.867
JAS-2 27 Feb 15:24:44 15:30:04 74° 74° (ENE) 15:36:03 435.910
YUBILEINY 27 Feb 15:36:57 15:45:03 46° 89° (E) 15:53:19 435.215
KKS-1 27 Feb 15:39:09 15:42:49 25° 292° (WNW) 15:46:22 437.445
M-CUBED/EXP-1 PRIME 27 Feb 15:52:28 15:56:12 32° 102° (ESE) 16:00:16 437.505
STARS 27 Feb 15:53:57 15:57:37 26° 292° (WNW) 16:01:13 437.465
ISS 27 Feb 15:57:13 16:00:26 57° 32° (NNE) 16:03:38 145.825
AUBIESAT-1 27 Feb 15:57:34 16:01:21 33° 103° (ESE) 16:05:24 437.475
Cubesat XI-IV 27 Feb 16:21:34 16:26:01 28° 66° (ENE) 16:30:36 437.490
MOZHAYETS 4 27 Feb 16:23:32 16:28:03 50° 99° (E) 16:32:34
CUTE-I 27 Feb 16:31:19 16:36:03 34° 68° (ENE) 16:40:52 437.470
AO-7 27 Feb 16:33:45 16:40:37 27° 267° (W) 16:47:14 29.400- 29.500
BEESAT 3 27 Feb 16:40:05 16:41:32 12° 109° (ESE) 16:43:12 437.485
BEESAT 2 27 Feb 17:00:14 17:02:55 17° 112° (ESE) 17:05:44 435.950
JAS-2 27 Feb 17:13:22 17:16:13 14° 276° (W) 17:18:52 435.910
PRISM 27 Feb 17:16:15 17:18:06 13° 90° (E) 17:20:09 437.425
M-CUBED/EXP-1 PRIME 27 Feb 17:27:42 17:31:03 24° 296° (WNW) 17:34:32 437.505
AUBIESAT-1 27 Feb 17:32:45 17:36:06 24° 296° (WNW) 17:39:34 437.475
YUBILEINY 27 Feb 17:33:57 17:42:03 40° 289° (WNW) 17:50:07 435.215
ISS 27 Feb 17:34:23 17:36:36 17° 227° (SW) 17:38:44 145.825
HO-68 27 Feb 17:55:15 17:59:17 17° 54° (NE) 18:03:38 435.675
O/OREOS (USA 219) 27 Feb 17:57:39 17:59:05 11° 48° (NE) 18:00:43 437.305
Cubesat XI-IV 27 Feb 18:00:59 18:05:59 39° 263° (W) 18:11:01 437.490
MOZHAYETS 4 27 Feb 18:01:49 18:04:57 18° 294° (WNW) 18:07:55
CUTE-I 27 Feb 18:11:19 18:16:08 32° 265° (W) 18:20:54 437.470
CUBESAT XI-V 27 Feb 18:12:21 18:17:00 54° 99° (E) 18:21:37 437.345
AIST 2 27 Feb 18:14:30 18:18:28 40° 117° (ESE) 18:22:32 435.215
BEESAT 3 27 Feb 18:15:04 18:19:09 65° 305° (NW) 18:23:17 437.485
VERMONT LUNAR 27 Feb 18:15:45 18:18:26 21° 153° (SSE) 18:21:09 437.305
BRITE-PL 27 Feb 18:18:32 18:22:27 20° 65° (ENE) 18:26:27 437.365/2234.400
AIST 1 27 Feb 18:22:20 18:26:47 77° 81° (E) 18:31:11
STRAND 1 27 Feb 18:30:39 18:35:39 49° 99° (E) 18:40:37 437.568
BEESAT 2 27 Feb 18:36:48 18:40:47 46° 308° (NW) 18:44:50 435.950
GOMX 1 27 Feb 18:41:20 18:45:15 21° 66° (ENE) 18:49:11 467.674
CANX-2 27 Feb 18:49:02 18:51:55 19° 67° (ENE) 18:54:55 2200.000
PRISM 27 Feb 18:49:52 18:54:01 54° 287° (WNW) 18:58:08 437.425
SEEDS 27 Feb 18:51:58 18:54:22 15° 66° (ENE) 18:56:55 437.485
CUTE 1.7 + AOD 2 27 Feb 19:07:29 19:10:58 26° 70° (ENE) 19:14:32 437.475
DOVE 4 27 Feb 19:31:39 19:36:31 42° 72° (ENE) 19:41:13 437.250
PHONESAT 2.4 27 Feb 19:32:01 19:35:18 33° 159° (SSE) 19:38:38 2401.200-2431.200
Oscar 11 27 Feb 19:32:21 19:34:51 16° 66° (ENE) 19:37:32 145.826/435.025
O/OREOS (USA 219) 27 Feb 19:34:41 19:39:19 88° 68° (ENE) 19:43:54 437.305
HO-68 27 Feb 19:38:55 19:46:03 80° 72° (ENE) 19:53:15 435.675
CUBESAT XI-V 27 Feb 19:50:57 19:54:04 17° 295° (WNW) 19:57:00 437.345
DX 1 27 Feb 19:51:03 19:53:09 14° 63° (ENE) 19:55:26 434.975-435.025
VERMONT LUNAR 27 Feb 19:52:34 19:56:01 58° 169° (SSE) 19:59:28 437.305
AIST 2 27 Feb 19:53:44 19:57:15 24° 315° (NW) 20:00:44 435.215
BRITE-PL 27 Feb 19:54:54 20:00:33 63° 260° (W) 20:06:03 437.365/2234.400
GONETS M04 27 Feb 19:56:10 19:57:50 11° 75° (ENE) 20:00:16
BEESAT 3 27 Feb 19:57:24 19:58:08 10° 325° (NW) 19:58:44 437.485
DELFI C3 27 Feb 19:57:46 20:00:47 21° 68° (ENE) 20:03:55 145.870
COMPASS 1 27 Feb 20:03:24 20:07:33 78° 76° (ENE) 20:11:43 437.405
AAUSAT CUBESAT 2 27 Feb 20:03:37 20:07:43 68° 76° (ENE) 20:11:51 437.432
CINEMA 3 27 Feb 20:05:29 20:10:08 48° 73° (ENE) 20:14:38 145.822/145.860
ZACube-1 27 Feb 20:09:06 20:12:14 20° 68° (ENE) 20:15:27 437.345
FUNcube-1 27 Feb 20:09:11 20:12:16 20° 68° (ENE) 20:15:27 145.935
STRAND 1 27 Feb 20:10:37 20:14:33 22° 296° (WNW) 20:18:21 437.568
GOMX 1 27 Feb 20:17:42 20:23:03 54° 261° (W) 20:28:12 467.674
UWE-3 27 Feb 20:19:37 20:23:32 31° 70° (ENE) 20:27:24 435.000/436.395/437.385
UKube-1 27 Feb 20:23:17 20:26:55 27° 68° (ENE) 20:30:38 .
CANX-2 27 Feb 20:23:40 20:27:38 38° 263° (W) 20:31:35 2200.000
SEEDS 27 Feb 20:25:49 20:29:52 47° 261° (W) 20:33:55 437.485
HUMSAT D 27 Feb 20:39:23 20:42:32 21° 68° (ENE) 20:45:46 437.325/437.525
PCSat 27 Feb 20:42:11 20:47:18 46° 113° (ESE) 20:52:30 145.827
CUTE 1.7 + AOD 2 27 Feb 20:43:17 20:46:52 26° 266° (W) 20:50:25 437.475
CUBEBUG 2 27 Feb 20:49:09 20:53:43 77° 76° (ENE) 20:58:10 437.445
Oscar 11 27 Feb 21:06:32 21:10:42 49° 261° (W) 21:14:54 145.826/435.025
PHONESAT 2.4 27 Feb 21:09:56 21:13:34 71° 176° (S) 21:17:11 2401.200-2431.200
DOVE 4 27 Feb 21:10:10 21:14:24 24° 267° (W) 21:18:26 437.250
50 SAT 27 Feb 21:11:20 21:14:54 32° 71° (ENE) 21:18:29 437.505
AISAT 27 Feb 21:12:23 21:16:33 39° 71° (ENE) 21:20:46 437.250
VELOX 1 27 Feb 21:23:24 21:27:43 49° 72° (ENE) 21:32:05 145.980
DX 1 27 Feb 21:24:36 21:28:57 62° 259° (WSW) 21:33:20 434.975-435.025
RS-15 27 Feb 21:26:04 21:30:34 14° 99° (E) 21:36:01 29.354- 29.394
ESTCUBE 1 27 Feb 21:26:50 21:30:32 26° 68° (ENE) 21:34:20 437.505/2401.250
CUBEBUG 1 27 Feb 21:28:27 21:32:00 24° 68° (ENE) 21:35:38 437.445
HO-68 27 Feb 21:29:49 21:34:41 18° 271° (W) 21:39:14 435.675
VERMONT LUNAR 27 Feb 21:30:23 21:33:52 70° 186° (S) 21:37:20 437.305
DELFI C3 27 Feb 21:32:17 21:35:52 30° 264° (W) 21:39:26 145.870
UNISAT 6 27 Feb 21:42:53 21:46:09 22° 93° (E) 21:49:33 437.425
CINEMA 3 27 Feb 21:44:11 21:47:36 18° 269° (W) 21:50:46 145.822/145.860
ZACube-1 27 Feb 21:44:15 21:48:25 39° 263° (W) 21:52:29 437.345
FUNcube-1 27 Feb 21:44:15 21:48:25 39° 262° (W) 21:52:29 145.935
GONETS M04 27 Feb 21:44:38 21:53:10 66° 93° (E) 22:01:45
POLYITAN 1 27 Feb 21:45:43 21:47:26 13° 89° (E) 21:49:23 437.675
POPSAT HIP 1 27 Feb 21:47:51 21:49:45 13° 89° (E) 21:51:51 437.405
UWE-3 27 Feb 21:56:22 22:00:06 25° 266° (W) 22:03:42 435.000/436.395/437.385
UKube-1 27 Feb 21:59:16 22:03:03 28° 265° (W) 22:06:46 .
TIGRISAT 27 Feb 22:09:08 22:13:09 40° 98° (E) 22:17:13 435.000
NANOSAT C BR1 27 Feb 22:11:11 22:14:35 24° 94° (E) 22:18:03 145.865
HUMSAT D 27 Feb 22:14:20 22:18:11 33° 264° (W) 22:21:58 437.325/437.525
SPROUT 27 Feb 22:14:30 22:17:32 19° 67° (ENE) 22:20:40 437.525
ANTELSAT 27 Feb 22:20:41 22:24:54 56° 100° (E) 22:29:10 437.575/2403.000
PCSat 27 Feb 22:26:15 22:30:57 28° 312° (NW) 22:35:36 145.827
TISAT 1 27 Feb 22:29:54 22:33:23 25° 68° (ENE) 22:36:57 437.305
QB50P1 27 Feb 22:42:35 22:46:46 54° 100° (E) 22:50:53 145.935-145.965
DANDE 27 Feb 22:43:33 22:46:55 15° 90° (E) 22:50:19 436.750
QB50P2 27 Feb 22:45:12 22:49:24 60° 100° (E) 22:53:35 145.880/145.840
50 SAT 27 Feb 22:47:03 22:50:01 19° 267° (W) 22:52:52 437.505
PHONESAT 2.4 27 Feb 22:48:22 22:51:57 58° 192° (SSW) 22:55:30 2401.200-2431.200
AISAT 27 Feb 22:49:56 22:53:21 20° 268° (W) 22:56:39 437.250
VELOX 1 27 Feb 23:01:46 23:04:38 16° 269° (W) 23:07:19 145.980
DUCHIFAT 1 27 Feb 23:03:17 23:07:32 87° 285° (WNW) 23:11:44 145.980
ESTCUBE 1 27 Feb 23:03:18 23:07:19 31° 264° (W) 23:11:21 437.505/2401.250
CUBEBUG 1 27 Feb 23:04:16 23:08:16 32° 264° (W) 23:12:15 437.445
VERMONT LUNAR 27 Feb 23:08:26 23:11:34 31° 202° (SSW) 23:14:40 437.305
BUGSAT 1 27 Feb 23:10:29 23:14:43 85° 105° (ESE) 23:18:49 437.445
UNISAT 6 27 Feb 23:19:13 23:23:04 33° 289° (WNW) 23:26:54 437.425
POLYITAN 1 27 Feb 23:19:39 23:23:49 55° 286° (WNW) 23:27:56 437.675
POPSAT HIP 1 27 Feb 23:21:55 23:26:04 53° 286° (WNW) 23:30:10 437.405
CUSAT 1 27 Feb 23:29:55 23:36:13 42° 96° (E) 23:41:11 437.405
RS-15 27 Feb 23:30:22 23:41:08 71° 117° (ESE) 23:52:05 29.354- 29.394
GONETS M04 27 Feb 23:43:30 23:50:47 28° 295° (WNW) 23:57:52
TIGRISAT 27 Feb 23:46:42 23:49:40 18° 294° (WNW) 23:52:33 435.000
NANOSAT C BR1 27 Feb 23:46:48 23:50:29 29° 291° (WNW) 23:54:06 145.865
SWISSCUBE 27 Feb 23:47:49 23:51:59 31° 69° (ENE) 23:56:14 437.505
SPROUT 27 Feb 23:49:17 23:53:23 40° 262° (W) 23:57:29 437.525
BEESAT 27 Feb 23:56:56 00:01:13 35° 69° (ENE) 00:05:36 436.000
ANTELSAT 27 Feb 23:59:03 00:01:19 14° 295° (WNW) 00:03:26 437.575/2403.000
TISAT 1 28 Feb 00:05:21 00:09:07 29° 265° (W) 00:12:51 437.305
Oscar 19 28 Feb 00:06:24 00:08:40 13° 88° (E) 00:11:12 437.125/150
QB50P1 28 Feb 00:19:57 00:22:15 14° 296° (WNW) 00:24:23 145.935-145.965
ITUPSAT 1 28 Feb 00:21:44 00:26:26 61° 73° (ENE) 00:31:12 437.325
DANDE 28 Feb 00:22:46 00:30:10 87° 278° (W) 00:35:46 436.750
QB50P2 28 Feb 00:22:50 00:24:53 13° 296° (WNW) 00:26:45 145.880/145.840
PHONESAT 2.4 28 Feb 00:27:14 00:30:03 21° 207° (SSW) 00:32:48 2401.200-2431.200
BEESAT 3 28 Feb 00:57:49 00:59:26 12° 37° (NE) 01:01:11 437.485
KKS-1 28 Feb 01:00:53 01:04:47 30° 69° (ENE) 01:08:45 437.445
CUSAT 1 28 Feb 01:13:32 01:19:07 28° 286° (WNW) 01:23:31 437.405
STARS 28 Feb 01:14:51 01:18:37 28° 69° (ENE) 01:22:26 437.465
BEESAT 2 28 Feb 01:19:04 01:21:37 16° 40° (NE) 01:24:14 435.950
SO-50 28 Feb 01:20:03 01:23:43 24° 113° (ESE) 01:27:33 436.795
SWISSCUBE 28 Feb 01:25:44 01:29:53 28° 265° (W) 01:33:58 437.505
ITAMSAT 1 28 Feb 01:35:03 01:39:40 32° 95° (E) 01:44:19 435.822/435.867
BEESAT 28 Feb 01:35:14 01:39:11 25° 266° (W) 01:43:03 436.000
Oscar 19 28 Feb 01:43:33 01:48:41 73° 285° (WNW) 01:53:47 437.125/150
RS-15 28 Feb 01:44:20 01:54:26 40° 323° (NW) 02:04:39 29.354- 29.394
YUBILEINY 28 Feb 01:47:02 01:53:35 23° 62° (ENE) 02:00:27 435.215
ITUPSAT 1 28 Feb 02:02:10 02:04:50 14° 271° (W) 02:07:18 437.325
DANDE 28 Feb 02:10:35 02:13:55 14° 293° (WNW) 02:16:34 436.750
Gurwin Techsat 1B 28 Feb 02:27:49 02:33:09 74° 102° (ESE) 02:38:28 435.225
BEESAT 3 28 Feb 02:34:07 02:38:16 82° 56° (NE) 02:42:22 437.485
JAS-2 28 Feb 02:34:59 02:37:42 13° 83° (E) 02:41:05 435.910
AIST 2 28 Feb 02:36:08 02:39:58 31° 48° (NE) 02:43:47 435.215
KKS-1 28 Feb 02:37:41 02:41:28 26° 266° (W) 02:45:11 437.445
AO-7 28 Feb 02:41:32 02:47:11 21° 89° (E) 02:53:14 29.400- 29.500
M-CUBED/EXP-1 PRIME 28 Feb 02:42:45 02:45:49 37° 67° (ENE) 02:49:00 437.505
AUBIESAT-1 28 Feb 02:47:25 02:50:29 38° 67° (ENE) 02:53:39 437.475
STARS 28 Feb 02:51:13 02:55:04 28° 265° (W) 02:58:51 437.465
HORYU 2 28 Feb 02:53:39 02:57:44 35° 97° (E) 03:01:49 437.375
BEESAT 2 28 Feb 02:56:08 03:00:17 68° 240° (WSW) 03:04:21 435.950
SO-50 28 Feb 02:59:40 03:04:03 41° 311° (NW) 03:08:35 436.795
ITAMSAT 1 28 Feb 03:14:31 03:19:10 33° 292° (WNW) 03:23:44 435.822/435.867
MOZHAYETS 4 28 Feb 03:25:46 03:30:08 48° 73° (ENE) 03:34:33
YUBILEINY 28 Feb 03:42:43 03:51:35 79° 265° (W) 04:00:23 435.215
RS-15 28 Feb 04:03:04 04:11:05 22° 356° (N) 04:19:16 29.354- 29.394
PRISM 28 Feb 04:08:29 04:09:26 11° 62° (ENE) 04:10:37 437.425
Gurwin Techsat 1B 28 Feb 04:09:24 04:12:35 16° 299° (WNW) 04:15:33 435.225
AIST 2 28 Feb 04:14:51 04:18:31 28° 246° (WSW) 04:22:04 435.215
JAS-2 28 Feb 04:16:38 04:23:57 71° 101° (ESE) 04:31:47 435.910
M-CUBED/EXP-1 PRIME 28 Feb 04:20:07 04:21:07 11° 265° (W) 04:21:57 437.505
AUBIESAT-1 28 Feb 04:24:44 04:25:42 11° 265° (W) 04:26:31 437.475
HORYU 2 28 Feb 04:30:44 04:34:14 23° 293° (WNW) 04:37:38 437.375
AO-7 28 Feb 04:32:43 04:41:04 82° 289° (WNW) 04:49:20 29.400- 29.500
CUTE-I 28 Feb 04:50:00 04:51:57 12° 87° (E) 04:54:14 437.470
MOZHAYETS 4 28 Feb 05:04:44 05:07:42 17° 270° (W) 05:10:31
CUBESAT XI-V 28 Feb 05:15:54 05:20:27 54° 73° (ENE) 05:25:04 437.345
PCSat 28 Feb 05:29:41 05:34:47 40° 52° (NE) 05:39:54 145.827
PRISM 28 Feb 05:40:18 05:44:25 72° 257° (WSW) 05:48:36 437.425
YUBILEINY 28 Feb 05:42:23 05:47:07 15° 283° (WNW) 05:51:16 435.215
STRAND 1 28 Feb 05:46:41 05:51:48 72° 74° (ENE) 05:56:58 437.568
JAS-2 28 Feb 06:02:42 06:08:32 26° 297° (WNW) 06:14:29 435.910
Cubesat XI-IV 28 Feb 06:17:30 06:22:56 82° 102° (ESE) 06:28:18 437.490
RS-15 28 Feb 06:18:33 06:28:16 33° 30° (NNE) 06:38:33 29.354- 29.394
AO-7 28 Feb 06:27:06 06:32:48 20° 309° (NW) 06:38:10 29.400- 29.500
CUTE-I 28 Feb 06:27:25 06:32:49 83° 286° (WNW) 06:38:11 437.470
AIST 1 28 Feb 06:52:06 06:56:13 44° 93° (E) 07:00:25
CUBESAT XI-V 28 Feb 06:55:23 06:58:18 16° 271° (W) 07:01:03 437.345
HO-68 28 Feb 07:08:54 07:12:05 14° 86° (E) 07:15:44 435.675
PCSat 28 Feb 07:13:23 07:18:06 30° 250° (WSW) 07:22:42 145.827
STRAND 1 28 Feb 07:28:59 07:31:39 14° 272° (W) 07:34:02 437.568
